St. Cloud, MN

4:22 AM CDT on May 28, 2017 (GMT -0500)
Saint Cloud Regional

Weather History for KSTC - November, 2012

Change the Weather History Date:

Friday, November 30, 2012

  Actual Average Record
Temperature  
Mean Temperature 30 °F 22 °F  
Max Temperature 33 °F 30 °F 57 °F (1922)
Min Temperature 26 °F 14 °F -23 °F (1905)
Degree Days  
Heating Degree Days 35 43  
Month to date heating degree days 955 1040  
Since 1 July heating degree days 1822 1925  
Cooling Degree Days 0 0  
Month to date cooling degree days 0 0  
Year to date cooling degree days 739 465  
Moisture  
Dew Point 26 °F    
Average Humidity 81    
Maximum Humidity 89    
Minimum Humidity 72    
Precipitation  
Precipitation 0.00 in 0.04 in 0.37 in (2015)
Month to date precipitation 1.05 1.38  
Year to date precipitation 23.51 26.91  
Snow  
Snow 0.00 in 0.40 in 5.70 in (1985)
Month to date snowfall 2.9 8.4  
Since 1 July snowfall 3.2 9.2  
Since 1 September snowfall 3.2 9.2  
Snow Depth T in    
Sea Level Pressure  
Sea Level Pressure 30.15 in    
Wind  
Wind Speed 8 mph (East)    
Max Wind Speed 16 mph    
Max Gust Speed 22 mph    
Visibility 6 miles    
Events      
T = Trace of Precipitation, MM = Missing Value Source: NWS Daily Summary

Daily Weather History Graph

Daily Weather History Graph

Search for Another Location

Airport or City:

Trip Planner

Search our weather history database for the weather conditions in past years. The results will help you decide how hot, cold, wet, or windy it might be!

Date:

Astronomy

Nov. 30, 2012 Rise Set
Actual Time 7:35 AM CST 4:34 PM CST
Civil Twilight 7:02 AM CST 5:07 PM CST
Nautical Twilight 6:25 AM CST 5:44 PM CST
Astronomical Twilight 5:49 AM CST 6:20 PM CST
Moon 6:30 PM CST (11/30) 9:07 AM CST (11/30)
Length of Visible Light 10h 05m
Length of Day
8h 58m
Waning Gibbous, 96% of the Moon is Illuminated
Nov 30
Waning Gibbous
Dec 6
Last Quarter
Dec 13
New
Dec 19
First Quarter
Dec 28
Full

Hourly Weather History & Observations

Time (CST) Temp. Windchill Dew Point Humidity Pressure Visibility Wind Dir Wind Speed Gust Speed Precip Events Conditions
12:53 AM 27.0 °F 18.0 °F 21.0 °F 78% 30.18 in 10.0 mi NE 9.2 mph 17.3 mph N/A   Scattered Clouds
1:53 AM 26.1 °F 18.4 °F 21.0 °F 81% 30.17 in 10.0 mi ENE 6.9 mph - N/A   Partly Cloudy
2:53 AM 27.0 °F 20.5 °F 21.9 °F 81% 30.19 in 9.0 mi ENE 5.8 mph - N/A   Mostly Cloudy
3:05 AM 26.6 °F 19.1 °F 21.2 °F 80% 30.12 in 8.0 mi ENE 6.9 mph - N/A   Scattered Clouds
3:41 AM 26.6 °F 20.0 °F 21.2 °F 80% 30.12 in 8.0 mi NE 5.8 mph - N/A   Mostly Cloudy
3:53 AM 27.0 °F 19.5 °F 23.0 °F 85% 30.19 in 8.0 mi ENE 6.9 mph - N/A   Overcast
4:02 AM 26.6 °F 21.2 °F 23.0 °F 86% 30.13 in 8.0 mi NE 4.6 mph - N/A   Overcast
4:53 AM 28.0 °F 21.7 °F 23.0 °F 81% 30.20 in 8.0 mi NE 5.8 mph - N/A   Overcast
5:53 AM 28.4 °F 22.2 °F 23.0 °F 80% 30.14 in 8.0 mi ENE 5.8 mph - N/A   Overcast
6:40 AM 28.4 °F 22.2 °F 23.0 °F 80% 30.14 in 8.0 mi ENE 5.8 mph - N/A   Overcast
6:53 AM 28.0 °F 20.0 °F 23.0 °F 81% 30.20 in 8.0 mi East 8.1 mph - N/A   Overcast
7:53 AM 28.0 °F 21.7 °F 23.0 °F 81% 30.22 in 7.0 mi ENE 5.8 mph - N/A   Overcast
8:53 AM 28.0 °F 22.8 °F 23.0 °F 81% 30.22 in 8.0 mi East 4.6 mph - N/A   Overcast
9:53 AM 28.9 °F 21.1 °F 23.0 °F 78% 30.22 in 8.0 mi East 8.1 mph - N/A   Overcast
10:53 AM 30.0 °F 25.2 °F 24.1 °F 79% 30.25 in 8.0 mi East 4.6 mph - N/A   Overcast
11:53 AM 32.0 °F 26.4 °F 25.0 °F 75% 30.22 in 8.0 mi East 5.8 mph - N/A   Overcast
12:53 PM 32.0 °F 27.5 °F 26.1 °F 79% 30.21 in 7.0 mi ESE 4.6 mph - N/A   Overcast
1:53 PM 33.1 °F 26.9 °F 27.0 °F 78% 30.18 in 6.0 mi ESE 6.9 mph - N/A   Haze
2:44 PM 33.8 °F 27.7 °F 28.4 °F 81% 30.10 in 5.0 mi ESE 6.9 mph - N/A   Haze
2:53 PM 33.1 °F 28.7 °F 28.0 °F 82% 30.18 in 5.0 mi ESE 4.6 mph - N/A   Haze
3:53 PM 33.1 °F 28.7 °F 28.0 °F 82% 30.18 in 4.0 mi East 4.6 mph - N/A   Haze
4:53 PM 32.0 °F 24.8 °F 28.0 °F 85% 30.16 in 6.0 mi ESE 8.1 mph - N/A   Overcast
5:53 PM 32.0 °F 24.8 °F 28.0 °F 85% 30.16 in 6.0 mi SE 8.1 mph - N/A   Overcast
6:53 PM 33.1 °F 26.9 °F 28.0 °F 82% 30.13 in 5.0 mi ESE 6.9 mph - N/A   Haze
7:00 PM 33.8 °F 27.7 °F 28.4 °F 81% 30.06 in 5.0 mi SE 6.9 mph - N/A   Haze
7:53 PM 33.1 °F 26.1 °F 28.0 °F 82% 30.12 in 6.0 mi SE 8.1 mph - N/A   Haze
8:53 PM 33.1 °F 24.9 °F 28.9 °F 85% 30.10 in 4.0 mi SSE 10.4 mph - N/A   Overcast
9:28 PM 33.8 °F 25.8 °F 28.4 °F 81% 30.03 in 4.0 mi SSE 10.4 mph - N/A   Overcast
9:53 PM 33.1 °F 23.9 °F 28.9 °F 85% 30.10 in 4.0 mi SE 12.7 mph 19.6 mph N/A   Overcast
10:53 PM 33.1 °F 23.4 °F 30.0 °F 89% 30.08 in 3.0 mi SE 13.8 mph - N/A   Overcast
11:17 PM 33.8 °F 24.8 °F 30.2 °F 87% 30.02 in 2.5 mi SE 12.7 mph - N/A   Overcast
11:53 PM 33.1 °F 23.0 °F 30.0 °F 89% 30.07 in 2.5 mi SE 15.0 mph 20.7 mph N/A   Overcast